Voltar ao catálogo

STARLINK-32435

AtivoComunicaçõesVLEO
NORAD 61259·PAYLOAD·🇺🇸 United States

Lançado Sep 25, 2024 de Vandenberg Space Force Base

Loading…

Próximas Passagens (próximas 24 horas)

TLE

AtualizadoSource: CelesTrak SupGP

Época: Sep 14, 2026, 21:03 UTC

1 61259C 24175S   26257.87756944  .00037838  00000+0  11182-2 0  2574
2 61259  53.1603  31.7001 0001212  71.2131 146.0518 15.34363370    17

Acompanhe STARLINK-32435 em tempo real com AllMySat

Download on the App Store